Location: *
(46.1006°N, 1.8394°E)
Time: 22:05:47
(UTC+00:00)

Cosmos 2181 Rocket - Pass Details

Date: 20 September 2019
Orbit: 953 x 1014 km, 82.9° (Epoch: 17 October)

Event Time Altitude Azimuth Distance (km) Brightness Sun altitude
Rises 19:19:58 0° 174° (S) 3,650 6.8 -15.3°
Reaches altitude 10° 19:22:28 10° 171° (S) 2,716 6.1 -15.7°
Maximum altitude 19:28:35 61° 93° (E) 1,114 4.0 -16.7°
Drops below altitude 10° 19:34:50 10° 15° (NNE) 2,776 6.5 -17.7°
Sets 19:37:24 0° 12° (NNE) 3,738 7.2 -18.2°
